Flag for Germany Past Weather in Frankfurt an der Oder, Brandenburg, Germany — Yesterday and Last 2 Weeks

Now
77 °F

Passing clouds.


Feels Like: 78 °F
Forecast: 71 / 90 °F
Wind: 1 mph from Southeast

Location: Gorzow Wlkp

Current Time: Jun 25, 2016 at 12:16:23 AM

Latest Report: Jun 24, 2016 at 11:00 PM


Visibility: 16 mi

Pressure: 29.99 "Hg

Humidity: 57%

Dew Point: 60 °F

Location of Frankfurt an der OderLocation

Past Weather in Frankfurt an der Oder — Graph

°F

Frankfurt an der Oder Temperature Yesterday

Maximum temperature yesterday: 91 °F (at 4:00 PM)
Minimum temperature yesterday: 67 °F (at 5:00 AM)
Average temperature yesterday: 80 °F

High & Low Weather Summary for the Past Weeks

 TemperatureHumidityPressure
High91 °F (Jun 24, 4:00 PM)97% (Jun 14, 8:00 AM)30.28 "Hg (Jun 14, 8:00 AM)
Low49 °F (Jun 12, 2:00 AM)27% (Jun 10, 6:00 PM)29.38 "Hg (Jun 17, 11:00 AM)
Average64 °F70%29.88 "Hg
* Reported Jun 9 11:00 PM — Jun 24 11:00 PM, Frankfurt an der Oder, Weather by CustomWeather, © 2016

Note: Actual official high and low records may vary slightly from our data, if they occured in-between our weather recording intervals... More about our weather records

Advertising

Frankfurt an der Oder Weather History for the Previous 24 Hours

Scroll right to see more
 ConditionsComfort  
Time TempWeatherWind HumidityBarometerVisibility
11:00 PM
Fri, Jun 24
77 °FPassing clouds.1 mph57%29.99 "Hg16 mi
10:00 PM78 °FPassing clouds.2 mph54%29.98 "Hg16 mi
9:00 PM82 °FPassing clouds.2 mph51%29.98 "Hg16 mi
8:00 PM86 °FPassing clouds.2 mph47%29.99 "Hg19 mi
7:00 PM90 °FSunny.2 mph37%29.97 "Hg22 mi
6:00 PM91 °FSunny.2 mph35%29.98 "Hg22 mi
5:00 PM91 °FSunny.2 mph30%29.99 "Hg22 mi
4:00 PM91 °FSunny.2 mph31%30.01 "Hg22 mi
3:00 PM91 °FSunny.2 mph31%30.03 "Hg22 mi
2:00 PM91 °FSunny.2 mph31%30.04 "Hg22 mi
1:00 PM90 °FSunny.3 mph31%30.04 "Hg22 mi
12:00 PM88 °FSunny.3 mph36%30.04 "Hg22 mi
11:00 AM86 °FSunny.2 mph44%30.06 "Hg19 mi
10:00 AM82 °FSunny.2 mph53%30.08 "Hg16 mi
9:00 AM78 °FSunny.2 mph61%30.08 "Hg16 mi
8:00 AM73 °FPassing clouds.2 mph68%30.08 "Hg16 mi
7:00 AM70 °FPassing clouds.2 mph69%30.09 "Hg12 mi
6:00 AM68 °FPassing clouds.2 mph72%30.10 "Hg16 mi
5:00 AM67 °FPassing clouds.2 mph73%30.10 "Hg16 mi
4:00 AM69 °FPassing clouds.2 mph71%30.11 "Hg16 mi
3:00 AM69 °FClear.2 mph70%30.11 "Hg19 mi
2:00 AM70 °FClear.2 mph69%30.11 "Hg19 mi
1:00 AM73 °FPassing clouds.2 mph65%30.12 "Hg19 mi
12:00 AM74 °FPassing clouds.2 mph64%30.12 "Hg22 mi
Weather by CustomWeather, © 2016

See weather overviewHow to use our weather pages